Year,Month,Day,Hour,Minute,Value (Times are PST for insolation in W/m^2)
2007,10,05,00,00,0.00
2007,10,05,00,01,0.00
2007,10,05,00,02,0.00
2007,10,05,00,03,0.00
2007,10,05,00,04,0.00
2007,10,05,00,05,0.00
2007,10,05,00,06,0.00
2007,10,05,00,07,0.00
2007,10,05,00,08,0.00
2007,10,05,00,09,0.00
2007,10,05,00,10,0.00
2007,10,05,00,11,0.00
2007,10,05,00,12,0.00
2007,10,05,00,13,0.00
2007,10,05,00,14,0.00
2007,10,05,00,15,0.00
2007,10,05,00,16,0.00
2007,10,05,00,17,0.00
2007,10,05,00,18,0.00
2007,10,05,00,19,0.00
2007,10,05,00,20,0.00
2007,10,05,00,21,0.00
2007,10,05,00,22,0.00
2007,10,05,00,23,0.00
2007,10,05,00,24,0.00
2007,10,05,00,25,0.00
2007,10,05,00,26,0.00
2007,10,05,00,27,0.00
2007,10,05,00,28,0.00
2007,10,05,00,29,0.00
2007,10,05,00,30,0.00
2007,10,05,00,31,0.00
2007,10,05,00,32,0.00
2007,10,05,00,33,0.00
2007,10,05,00,34,0.00
2007,10,05,00,35,0.00
2007,10,05,00,36,0.00
2007,10,05,00,37,0.00
2007,10,05,00,38,0.00
2007,10,05,00,39,0.00
2007,10,05,00,40,0.00
2007,10,05,00,41,0.00
2007,10,05,00,42,0.00
2007,10,05,00,43,0.00
2007,10,05,00,44,0.00
2007,10,05,00,45,0.00
2007,10,05,00,46,0.00
2007,10,05,00,47,0.00
2007,10,05,00,48,0.00
2007,10,05,00,49,0.00
2007,10,05,00,50,0.00
2007,10,05,00,51,0.00
2007,10,05,00,52,0.00
2007,10,05,00,53,0.00
2007,10,05,00,54,0.00
2007,10,05,00,55,0.00
2007,10,05,00,56,0.00
2007,10,05,00,57,0.00
2007,10,05,00,58,0.00
2007,10,05,00,59,0.00
2007,10,05,01,00,0.00
2007,10,05,01,01,0.00
2007,10,05,01,02,0.00
2007,10,05,01,03,0.00
2007,10,05,01,04,0.00
2007,10,05,01,05,0.00
2007,10,05,01,06,0.00
2007,10,05,01,07,0.00
2007,10,05,01,08,0.00
2007,10,05,01,09,0.00
2007,10,05,01,10,0.00
2007,10,05,01,11,0.00
2007,10,05,01,12,0.00
2007,10,05,01,13,0.00
2007,10,05,01,14,0.00
2007,10,05,01,15,0.00
2007,10,05,01,16,0.00
2007,10,05,01,17,0.00
2007,10,05,01,18,0.00
2007,10,05,01,19,0.00
2007,10,05,01,20,0.00
2007,10,05,01,21,0.00
2007,10,05,01,22,0.00
2007,10,05,01,23,0.00
2007,10,05,01,24,0.00
2007,10,05,01,25,0.00
2007,10,05,01,26,0.00
2007,10,05,01,27,0.00
2007,10,05,01,28,0.00
2007,10,05,01,29,0.00
2007,10,05,01,30,0.00
2007,10,05,01,31,0.00
2007,10,05,01,32,0.00
2007,10,05,01,33,0.00
2007,10,05,01,34,0.00
2007,10,05,01,35,0.00
2007,10,05,01,36,0.00
2007,10,05,01,37,0.00
2007,10,05,01,38,0.00
2007,10,05,01,39,0.00
2007,10,05,01,40,0.00
2007,10,05,01,41,0.00
2007,10,05,01,42,0.00
2007,10,05,01,43,0.00
2007,10,05,01,44,0.00
2007,10,05,01,45,0.00
2007,10,05,01,46,0.00
2007,10,05,01,47,0.00
2007,10,05,01,48,0.00
2007,10,05,01,49,0.00
2007,10,05,01,50,0.00
2007,10,05,01,51,0.00
2007,10,05,01,52,0.00
2007,10,05,01,53,0.00
2007,10,05,01,54,0.00
2007,10,05,01,55,0.00
2007,10,05,01,56,0.00
2007,10,05,01,57,0.00
2007,10,05,01,58,0.00
2007,10,05,01,59,0.00
2007,10,05,02,00,0.00
2007,10,05,02,01,0.00
2007,10,05,02,02,0.00
2007,10,05,02,03,0.00
2007,10,05,02,04,0.00
2007,10,05,02,05,0.00
2007,10,05,02,06,0.00
2007,10,05,02,07,0.00
2007,10,05,02,08,0.00
2007,10,05,02,09,0.00
2007,10,05,02,10,0.00
2007,10,05,02,11,0.00
2007,10,05,02,12,0.00
2007,10,05,02,13,0.00
2007,10,05,02,14,0.00
2007,10,05,02,15,0.00
2007,10,05,02,16,0.00
2007,10,05,02,17,0.00
2007,10,05,02,18,0.00
2007,10,05,02,19,0.00
2007,10,05,02,20,0.00
2007,10,05,02,21,0.00
2007,10,05,02,22,0.00
2007,10,05,02,23,0.00
2007,10,05,02,24,0.00
2007,10,05,02,25,0.00
2007,10,05,02,26,0.00
2007,10,05,02,27,0.00
2007,10,05,02,28,0.00
2007,10,05,02,29,0.00
2007,10,05,02,30,0.00
2007,10,05,02,31,0.00
2007,10,05,02,32,0.00
2007,10,05,02,33,0.00
2007,10,05,02,34,0.00
2007,10,05,02,35,0.00
2007,10,05,02,36,0.00
2007,10,05,02,37,0.00
2007,10,05,02,38,0.00
2007,10,05,02,39,0.00
2007,10,05,02,40,0.00
2007,10,05,02,41,0.00
2007,10,05,02,42,0.00
2007,10,05,02,43,0.00
2007,10,05,02,44,0.00
2007,10,05,02,45,0.00
2007,10,05,02,46,0.00
2007,10,05,02,47,0.00
2007,10,05,02,48,0.00
2007,10,05,02,49,0.00
2007,10,05,02,50,0.00
2007,10,05,02,51,0.00
2007,10,05,02,52,0.00
2007,10,05,02,53,0.00
2007,10,05,02,54,0.00
2007,10,05,02,55,0.00
2007,10,05,02,56,0.00
2007,10,05,02,57,0.00
2007,10,05,02,58,0.00
2007,10,05,02,59,0.00
2007,10,05,03,00,0.00
2007,10,05,03,01,0.00
2007,10,05,03,02,0.00
2007,10,05,03,03,0.00
2007,10,05,03,04,0.00
2007,10,05,03,05,0.00
2007,10,05,03,06,0.00
2007,10,05,03,07,0.00
2007,10,05,03,08,0.00
2007,10,05,03,09,0.00
2007,10,05,03,10,0.00
2007,10,05,03,11,0.00
2007,10,05,03,12,0.00
2007,10,05,03,13,0.00
2007,10,05,03,14,0.00
2007,10,05,03,15,0.00
2007,10,05,03,16,0.00
2007,10,05,03,17,0.00
2007,10,05,03,18,0.00
2007,10,05,03,19,0.00
2007,10,05,03,20,0.00
2007,10,05,03,21,0.00
2007,10,05,03,22,0.00
2007,10,05,03,23,0.00
2007,10,05,03,24,0.00
2007,10,05,03,25,0.00
2007,10,05,03,26,0.00
2007,10,05,03,27,0.00
2007,10,05,03,28,0.00
2007,10,05,03,29,0.00
2007,10,05,03,30,0.00
2007,10,05,03,31,0.00
2007,10,05,03,32,0.00
2007,10,05,03,33,0.00
2007,10,05,03,34,0.00
2007,10,05,03,35,0.00
2007,10,05,03,36,0.00
2007,10,05,03,37,0.00
2007,10,05,03,38,0.00
2007,10,05,03,39,0.00
2007,10,05,03,40,0.00
2007,10,05,03,41,0.00
2007,10,05,03,42,0.00
2007,10,05,03,43,0.00
2007,10,05,03,44,0.00
2007,10,05,03,45,0.00
2007,10,05,03,46,0.00
2007,10,05,03,47,0.00
2007,10,05,03,48,0.00
2007,10,05,03,49,0.00
2007,10,05,03,50,0.00
2007,10,05,03,51,0.00
2007,10,05,03,52,0.00
2007,10,05,03,53,0.00
2007,10,05,03,54,0.00
2007,10,05,03,55,0.00
2007,10,05,03,56,0.00
2007,10,05,03,57,0.00
2007,10,05,03,58,0.00
2007,10,05,03,59,0.00
2007,10,05,04,00,0.00
2007,10,05,04,01,0.00
2007,10,05,04,02,0.00
2007,10,05,04,03,0.00
2007,10,05,04,04,0.00
2007,10,05,04,05,0.00
2007,10,05,04,06,0.00
2007,10,05,04,07,0.00
2007,10,05,04,08,0.00
2007,10,05,04,09,0.00
2007,10,05,04,10,0.00
2007,10,05,04,11,0.00
2007,10,05,04,12,0.00
2007,10,05,04,13,0.00
2007,10,05,04,14,0.00
2007,10,05,04,15,0.00
2007,10,05,04,16,0.00
2007,10,05,04,17,0.00
2007,10,05,04,18,0.00
2007,10,05,04,19,0.00
2007,10,05,04,20,0.00
2007,10,05,04,21,0.00
2007,10,05,04,22,0.00
2007,10,05,04,23,0.00
2007,10,05,04,24,0.00
2007,10,05,04,25,0.00
2007,10,05,04,26,0.00
2007,10,05,04,27,0.00
2007,10,05,04,28,0.00
2007,10,05,04,29,0.00
2007,10,05,04,30,0.00
2007,10,05,04,31,0.00
2007,10,05,04,32,0.00
2007,10,05,04,33,0.00
2007,10,05,04,34,0.00
2007,10,05,04,35,0.00
2007,10,05,04,36,0.00
2007,10,05,04,37,0.00
2007,10,05,04,38,0.00
2007,10,05,04,39,0.00
2007,10,05,04,40,0.00
2007,10,05,04,41,0.00
2007,10,05,04,42,0.00
2007,10,05,04,43,0.00
2007,10,05,04,44,0.00
2007,10,05,04,45,0.00
2007,10,05,04,46,0.00
2007,10,05,04,47,0.00
2007,10,05,04,48,0.00
2007,10,05,04,49,0.00
2007,10,05,04,50,0.00
2007,10,05,04,51,0.00
2007,10,05,04,52,0.00
2007,10,05,04,53,0.00
2007,10,05,04,54,0.00
2007,10,05,04,55,0.00
2007,10,05,04,56,0.00
2007,10,05,04,57,0.00
2007,10,05,04,58,0.00
2007,10,05,04,59,0.00
2007,10,05,05,00,0.00
2007,10,05,05,01,0.00
2007,10,05,05,02,0.00
2007,10,05,05,03,0.00
2007,10,05,05,04,0.00
2007,10,05,05,05,0.00
2007,10,05,05,06,0.00
2007,10,05,05,07,0.00
2007,10,05,05,08,0.00
2007,10,05,05,09,0.00
2007,10,05,05,10,0.00
2007,10,05,05,11,0.00
2007,10,05,05,12,0.00
2007,10,05,05,13,0.00
2007,10,05,05,14,0.00
2007,10,05,05,15,0.00
2007,10,05,05,16,0.00
2007,10,05,05,17,0.00
2007,10,05,05,18,0.00
2007,10,05,05,19,0.00
2007,10,05,05,20,0.00
2007,10,05,05,21,0.00
2007,10,05,05,22,0.00
2007,10,05,05,23,0.00
2007,10,05,05,24,0.00
2007,10,05,05,25,0.00
2007,10,05,05,26,0.00
2007,10,05,05,27,0.00
2007,10,05,05,28,0.00
2007,10,05,05,29,0.00
2007,10,05,05,30,0.00
2007,10,05,05,31,0.00
2007,10,05,05,32,0.00
2007,10,05,05,33,0.00
2007,10,05,05,34,0.00
2007,10,05,05,35,0.00
2007,10,05,05,36,0.00
2007,10,05,05,37,0.00
2007,10,05,05,38,0.00
2007,10,05,05,39,0.00
2007,10,05,05,40,0.00
2007,10,05,05,41,0.00
2007,10,05,05,42,0.00
2007,10,05,05,43,0.00
2007,10,05,05,44,0.00
2007,10,05,05,45,0.00
2007,10,05,05,46,0.00
2007,10,05,05,47,0.00
2007,10,05,05,48,0.00
2007,10,05,05,49,0.00
2007,10,05,05,50,0.00
2007,10,05,05,51,0.00
2007,10,05,05,52,0.00
2007,10,05,05,53,0.00
2007,10,05,05,54,0.00
2007,10,05,05,55,0.00
2007,10,05,05,56,0.00
2007,10,05,05,57,0.00
2007,10,05,05,58,0.00
2007,10,05,05,59,0.00
2007,10,05,06,00,0.00
2007,10,05,06,01,0.00
2007,10,05,06,02,0.00
2007,10,05,06,03,0.00
2007,10,05,06,04,0.00
2007,10,05,06,05,0.00
2007,10,05,06,06,0.00
2007,10,05,06,07,0.00
2007,10,05,06,08,0.00
2007,10,05,06,09,0.00
2007,10,05,06,10,0.00
2007,10,05,06,11,0.00
2007,10,05,06,12,0.00
2007,10,05,06,13,0.00
2007,10,05,06,14,0.00
2007,10,05,06,15,0.00
2007,10,05,06,16,0.00
2007,10,05,06,17,0.00
2007,10,05,06,18,0.00
2007,10,05,06,19,0.00
2007,10,05,06,20,0.00
2007,10,05,06,21,0.00
2007,10,05,06,22,0.00
2007,10,05,06,23,0.00
2007,10,05,06,24,0.00
2007,10,05,06,25,0.00
2007,10,05,06,26,0.00
2007,10,05,06,27,0.00
2007,10,05,06,28,0.00
2007,10,05,06,29,0.00
2007,10,05,06,30,0.00
2007,10,05,06,31,0.00
2007,10,05,06,32,0.00
2007,10,05,06,33,0.00
2007,10,05,06,34,0.00
2007,10,05,06,35,0.00
2007,10,05,06,36,0.00
2007,10,05,06,37,0.00
2007,10,05,06,38,0.00
2007,10,05,06,39,0.00
2007,10,05,06,40,0.00
2007,10,05,06,41,0.00
2007,10,05,06,42,0.00
2007,10,05,06,43,0.00
2007,10,05,06,44,0.00
2007,10,05,06,45,0.00
2007,10,05,06,46,0.00
2007,10,05,06,47,0.00
2007,10,05,06,48,0.00
2007,10,05,06,49,0.00
2007,10,05,06,50,0.00
2007,10,05,06,51,0.00
2007,10,05,06,52,0.00
2007,10,05,06,53,0.00
2007,10,05,06,54,0.00
2007,10,05,06,55,0.00
2007,10,05,06,56,0.00
2007,10,05,06,57,0.00
2007,10,05,06,58,0.00
2007,10,05,06,59,0.00
2007,10,05,07,00,0.00
2007,10,05,07,01,0.00
2007,10,05,07,02,0.00
2007,10,05,07,03,0.00
2007,10,05,07,04,0.00
2007,10,05,07,05,0.00
2007,10,05,07,06,0.00
2007,10,05,07,07,0.00
2007,10,05,07,08,0.00
2007,10,05,07,09,0.00
2007,10,05,07,10,0.00
2007,10,05,07,11,0.00
2007,10,05,07,12,0.00
2007,10,05,07,13,0.00
2007,10,05,07,14,0.00
2007,10,05,07,15,0.00
2007,10,05,07,16,0.00
2007,10,05,07,17,0.00
2007,10,05,07,18,0.00
2007,10,05,07,19,0.00
2007,10,05,07,20,0.00
2007,10,05,07,21,0.00
2007,10,05,07,22,0.00
2007,10,05,07,23,4.00
2007,10,05,07,24,5.00
2007,10,05,07,25,5.00
2007,10,05,07,26,5.00
2007,10,05,07,27,5.00
2007,10,05,07,28,5.00
2007,10,05,07,29,5.00
2007,10,05,07,30,5.00
2007,10,05,07,31,7.00
2007,10,05,07,32,7.70
2007,10,05,07,33,9.00
2007,10,05,07,34,9.00
2007,10,05,07,35,10.60
2007,10,05,07,36,11.00
2007,10,05,07,37,12.00
2007,10,05,07,38,12.00
2007,10,05,07,39,13.00
2007,10,05,07,40,15.40
2007,10,05,07,41,17.70
2007,10,05,07,42,18.90
2007,10,05,07,43,19.00
2007,10,05,07,44,20.30
2007,10,05,07,45,24.10
2007,10,05,07,46,26.80
2007,10,05,07,47,28.00
2007,10,05,07,48,30.30
2007,10,05,07,49,32.50
2007,10,05,07,50,24.20
2007,10,05,07,51,24.70
2007,10,05,07,52,26.00
2007,10,05,07,53,26.00
2007,10,05,07,54,25.70
2007,10,05,07,55,23.00
2007,10,05,07,56,23.00
2007,10,05,07,57,23.00
2007,10,05,07,58,23.00
2007,10,05,07,59,23.00
2007,10,05,08,00,25.00
2007,10,05,08,01,25.00
2007,10,05,08,02,25.00
2007,10,05,08,03,25.00
2007,10,05,08,04,25.00
2007,10,05,08,05,25.00
2007,10,05,08,06,27.70
2007,10,05,08,07,26.60
2007,10,05,08,08,28.00
2007,10,05,08,09,30.50
2007,10,05,08,10,30.40
2007,10,05,08,11,32.50
2007,10,05,08,12,37.00
2007,10,05,08,13,37.00
2007,10,05,08,14,38.50
2007,10,05,08,15,39.30
2007,10,05,08,16,37.40
2007,10,05,08,17,33.00
2007,10,05,08,18,33.00
2007,10,05,08,19,32.70
2007,10,05,08,20,32.00
2007,10,05,08,21,32.00
2007,10,05,08,22,32.00
2007,10,05,08,23,32.00
2007,10,05,08,24,33.00
2007,10,05,08,25,33.80
2007,10,05,08,26,37.80
2007,10,05,08,27,44.30
2007,10,05,08,28,46.90
2007,10,05,08,29,46.00
2007,10,05,08,30,44.70
2007,10,05,08,31,38.70
2007,10,05,08,32,37.00
2007,10,05,08,33,42.20
2007,10,05,08,34,46.70
2007,10,05,08,35,42.40
2007,10,05,08,36,43.90
2007,10,05,08,37,49.00
2007,10,05,08,38,49.00
2007,10,05,08,39,49.00
2007,10,05,08,40,49.00
2007,10,05,08,41,49.20
2007,10,05,08,42,51.00
2007,10,05,08,43,51.00
2007,10,05,08,44,51.00
2007,10,05,08,45,45.40
2007,10,05,08,46,44.00
2007,10,05,08,47,44.00
2007,10,05,08,48,44.00
2007,10,05,08,49,43.00
2007,10,05,08,50,42.00
2007,10,05,08,51,43.60
2007,10,05,08,52,44.00
2007,10,05,08,53,44.00
2007,10,05,08,54,44.00
2007,10,05,08,55,44.90
2007,10,05,08,56,46.00
2007,10,05,08,57,46.00
2007,10,05,08,58,40.00
2007,10,05,08,59,41.70
2007,10,05,09,00,40.00
2007,10,05,09,01,40.00
2007,10,05,09,02,63.80
2007,10,05,09,03,74.00
2007,10,05,09,04,99.90
2007,10,05,09,05,104.00
2007,10,05,09,06,147.50
2007,10,05,09,07,222.90
2007,10,05,09,08,218.00
2007,10,05,09,09,218.00
2007,10,05,09,10,236.00
2007,10,05,09,11,236.20
2007,10,05,09,12,238.60
2007,10,05,09,13,241.00
2007,10,05,09,14,241.00
2007,10,05,09,15,241.00
2007,10,05,09,16,241.70
2007,10,05,09,17,248.60
2007,10,05,09,18,251.30
2007,10,05,09,19,253.00
2007,10,05,09,20,256.00
2007,10,05,09,21,257.90
2007,10,05,09,22,260.40
2007,10,05,09,23,264.80
2007,10,05,09,24,267.90
2007,10,05,09,25,270.20
2007,10,05,09,26,271.00
2007,10,05,09,27,275.80
2007,10,05,09,28,278.00
2007,10,05,09,29,279.00
2007,10,05,09,30,280.80
2007,10,05,09,31,283.00
2007,10,05,09,32,283.00
2007,10,05,09,33,289.70
2007,10,05,09,34,292.30
2007,10,05,09,35,294.00
2007,10,05,09,36,295.20
2007,10,05,09,37,298.20
2007,10,05,09,38,301.40
2007,10,05,09,39,306.00
2007,10,05,09,40,308.60
2007,10,05,09,41,312.60
2007,10,05,09,42,317.40
2007,10,05,09,43,320.00
2007,10,05,09,44,318.30
2007,10,05,09,45,322.00
2007,10,05,09,46,323.40
2007,10,05,09,47,325.70
2007,10,05,09,48,328.20
2007,10,05,09,49,329.00
2007,10,05,09,50,331.60
2007,10,05,09,51,332.00
2007,10,05,09,52,332.00
2007,10,05,09,53,334.40
2007,10,05,09,54,340.20
2007,10,05,09,55,343.90
2007,10,05,09,56,347.70
2007,10,05,09,57,348.60
2007,10,05,09,58,355.00
2007,10,05,09,59,360.20
2007,10,05,10,00,366.60
2007,10,05,10,01,367.00
2007,10,05,10,02,366.10
2007,10,05,10,03,366.60
2007,10,05,10,04,371.00
2007,10,05,10,05,372.40
2007,10,05,10,06,375.20
2007,10,05,10,07,377.60
2007,10,05,10,08,379.90
2007,10,05,10,09,383.00
2007,10,05,10,10,384.20
2007,10,05,10,11,387.50
2007,10,05,10,12,389.30
2007,10,05,10,13,390.00
2007,10,05,10,14,393.30
2007,10,05,10,15,396.00
2007,10,05,10,16,397.10
2007,10,05,10,17,399.90
2007,10,05,10,18,402.30
2007,10,05,10,19,403.00
2007,10,05,10,20,406.00
2007,10,05,10,21,410.20
2007,10,05,10,22,411.70
2007,10,05,10,23,414.00
2007,10,05,10,24,415.00
2007,10,05,10,25,417.50
2007,10,05,10,26,420.10
2007,10,05,10,27,422.60
2007,10,05,10,28,425.70
2007,10,05,10,29,428.00
2007,10,05,10,30,430.50
2007,10,05,10,31,431.00
2007,10,05,10,32,431.00
2007,10,05,10,33,432.80
2007,10,05,10,34,438.40
2007,10,05,10,35,440.20
2007,10,05,10,36,441.00
2007,10,05,10,37,444.60
2007,10,05,10,38,446.10
2007,10,05,10,39,448.50
2007,10,05,10,40,450.80
2007,10,05,10,41,452.00
2007,10,05,10,42,452.00
2007,10,05,10,43,452.00
2007,10,05,10,44,457.00
2007,10,05,10,45,458.00
2007,10,05,10,46,461.00
2007,10,05,10,47,461.60
2007,10,05,10,48,463.60
2007,10,05,10,49,464.00
2007,10,05,10,50,464.60
2007,10,05,10,51,469.00
2007,10,05,10,52,469.90
2007,10,05,10,53,471.00
2007,10,05,10,54,474.20
2007,10,05,10,55,475.00
2007,10,05,10,56,478.00
2007,10,05,10,57,478.00
2007,10,05,10,58,478.00
2007,10,05,10,59,478.00
2007,10,05,11,00,485.60
2007,10,05,11,01,487.00
2007,10,05,11,02,489.00
2007,10,05,11,03,489.30
2007,10,05,11,04,490.00
2007,10,05,11,05,491.30
2007,10,05,11,06,495.40
2007,10,05,11,07,496.00
2007,10,05,11,08,496.20
2007,10,05,11,09,497.00
2007,10,05,11,10,499.20
2007,10,05,11,11,501.00
2007,10,05,11,12,503.30
2007,10,05,11,13,508.00
2007,10,05,11,14,508.00
2007,10,05,11,15,509.40
2007,10,05,11,16,512.00
2007,10,05,11,17,512.70
2007,10,05,11,18,514.50
2007,10,05,11,19,515.40
2007,10,05,11,20,519.00
2007,10,05,11,21,520.30
2007,10,05,11,22,523.20
2007,10,05,11,23,525.60
2007,10,05,11,24,526.00
2007,10,05,11,25,526.00
2007,10,05,11,26,526.30
2007,10,05,11,27,529.70
2007,10,05,11,28,533.00
2007,10,05,11,29,533.00
2007,10,05,11,30,531.40
2007,10,05,11,31,534.30
2007,10,05,11,32,536.00
2007,10,05,11,33,536.00
2007,10,05,11,34,537.10
2007,10,05,11,35,538.00
2007,10,05,11,36,540.50
2007,10,05,11,37,541.30
2007,10,05,11,38,543.70
2007,10,05,11,39,545.00
2007,10,05,11,40,545.00
2007,10,05,11,41,546.70
2007,10,05,11,42,547.00
2007,10,05,11,43,552.00
2007,10,05,11,44,553.00
2007,10,05,11,45,556.00
2007,10,05,11,46,557.00
2007,10,05,11,47,560.40
2007,10,05,11,48,564.10
2007,10,05,11,49,566.40
2007,10,05,11,50,568.00
2007,10,05,11,51,568.00
2007,10,05,11,52,569.80
2007,10,05,11,53,571.00
2007,10,05,11,54,570.00
2007,10,05,11,55,569.50
2007,10,05,11,56,569.20
2007,10,05,11,57,571.00
2007,10,05,11,58,571.00
2007,10,05,11,59,571.00
2007,10,05,12,00,571.00
2007,10,05,12,01,571.50
2007,10,05,12,02,573.00
2007,10,05,12,03,573.00
2007,10,05,12,04,574.50
2007,10,05,12,05,576.90
2007,10,05,12,06,577.00
2007,10,05,12,07,577.00
2007,10,05,12,08,577.40
2007,10,05,12,09,578.00
2007,10,05,12,10,578.00
2007,10,05,12,11,578.00
2007,10,05,12,12,578.30
2007,10,05,12,13,580.00
2007,10,05,12,14,580.00
2007,10,05,12,15,580.00
2007,10,05,12,16,580.00
2007,10,05,12,17,583.30
2007,10,05,12,18,584.20
2007,10,05,12,19,585.00
2007,10,05,12,20,585.00
2007,10,05,12,21,585.00
2007,10,05,12,22,585.00
2007,10,05,12,23,587.00
2007,10,05,12,24,587.00
2007,10,05,12,25,587.70
2007,10,05,12,26,589.00
2007,10,05,12,27,589.00
2007,10,05,12,28,590.70
2007,10,05,12,29,589.20
2007,10,05,12,30,589.40
2007,10,05,12,31,591.00
2007,10,05,12,32,591.60
2007,10,05,12,33,592.00
2007,10,05,12,34,592.00
2007,10,05,12,35,593.90
2007,10,05,12,36,592.00
2007,10,05,12,37,592.80
2007,10,05,12,38,594.00
2007,10,05,12,39,596.90
2007,10,05,12,40,598.00
2007,10,05,12,41,598.10
2007,10,05,12,42,599.00
2007,10,05,12,43,598.60
2007,10,05,12,44,598.60
2007,10,05,12,45,599.00
2007,10,05,12,46,599.00
2007,10,05,12,47,600.80
2007,10,05,12,48,599.50
2007,10,05,12,49,601.00
2007,10,05,12,50,599.80
2007,10,05,12,51,599.00
2007,10,05,12,52,599.00
2007,10,05,12,53,599.30
2007,10,05,12,54,601.00
2007,10,05,12,55,601.00
2007,10,05,12,56,601.00
2007,10,05,12,57,601.00
2007,10,05,12,58,601.00
2007,10,05,12,59,601.00
2007,10,05,13,00,601.00
2007,10,05,13,01,601.00
2007,10,05,13,02,601.00
2007,10,05,13,03,601.00
2007,10,05,13,04,601.00
2007,10,05,13,05,603.00
2007,10,05,13,06,603.00
2007,10,05,13,07,603.00
2007,10,05,13,08,601.90
2007,10,05,13,09,601.00
2007,10,05,13,10,601.00
2007,10,05,13,11,601.00
2007,10,05,13,12,601.00
2007,10,05,13,13,601.00
2007,10,05,13,14,599.60
2007,10,05,13,15,600.80
2007,10,05,13,16,602.90
2007,10,05,13,17,601.00
2007,10,05,13,18,601.00
2007,10,05,13,19,601.00
2007,10,05,13,20,599.80
2007,10,05,13,21,599.00
2007,10,05,13,22,599.00
2007,10,05,13,23,598.70
2007,10,05,13,24,598.00
2007,10,05,13,25,598.00
2007,10,05,13,26,598.70
2007,10,05,13,27,598.20
2007,10,05,13,28,598.00
2007,10,05,13,29,598.00
2007,10,05,13,30,598.00
2007,10,05,13,31,598.00
2007,10,05,13,32,598.00
2007,10,05,13,33,596.30
2007,10,05,13,34,596.00
2007,10,05,13,35,596.00
2007,10,05,13,36,596.00
2007,10,05,13,37,596.00
2007,10,05,13,38,594.40
2007,10,05,13,39,592.30
2007,10,05,13,40,592.00
2007,10,05,13,41,591.70
2007,10,05,13,42,590.00
2007,10,05,13,43,589.00
2007,10,05,13,44,589.00
2007,10,05,13,45,589.00
2007,10,05,13,46,587.00
2007,10,05,13,47,586.30
2007,10,05,13,48,586.00
2007,10,05,13,49,585.60
2007,10,05,13,50,586.70
2007,10,05,13,51,587.00
2007,10,05,13,52,586.40
2007,10,05,13,53,584.00
2007,10,05,13,54,584.00
2007,10,05,13,55,582.60
2007,10,05,13,56,582.00
2007,10,05,13,57,581.80
2007,10,05,13,58,578.00
2007,10,05,13,59,578.00
2007,10,05,14,00,576.50
2007,10,05,14,01,575.00
2007,10,05,14,02,575.00
2007,10,05,14,03,575.00
2007,10,05,14,04,574.50
2007,10,05,14,05,573.00
2007,10,05,14,06,573.00
2007,10,05,14,07,571.50
2007,10,05,14,08,571.00
2007,10,05,14,09,571.00
2007,10,05,14,10,570.20
2007,10,05,14,11,566.20
2007,10,05,14,12,565.20
2007,10,05,14,13,566.00
2007,10,05,14,14,566.00
2007,10,05,14,15,559.30
2007,10,05,14,16,560.40
2007,10,05,14,17,559.00
2007,10,05,14,18,559.00
2007,10,05,14,19,559.00
2007,10,05,14,20,559.00
2007,10,05,14,21,555.00
2007,10,05,14,22,555.00
2007,10,05,14,23,554.50
2007,10,05,14,24,554.00
2007,10,05,14,25,552.30
2007,10,05,14,26,552.00
2007,10,05,14,27,551.30
2007,10,05,14,28,548.00
2007,10,05,14,29,548.00
2007,10,05,14,30,546.30
2007,10,05,14,31,543.30
2007,10,05,14,32,542.90
2007,10,05,14,33,541.00
2007,10,05,14,34,541.00
2007,10,05,14,35,541.00
2007,10,05,14,36,539.20
2007,10,05,14,37,538.00
2007,10,05,14,38,534.00
2007,10,05,14,39,533.00
2007,10,05,14,40,533.00
2007,10,05,14,41,530.70
2007,10,05,14,42,527.60
2007,10,05,14,43,526.10
2007,10,05,14,44,524.20
2007,10,05,14,45,523.50
2007,10,05,14,46,521.30
2007,10,05,14,47,520.00
2007,10,05,14,48,519.20
2007,10,05,14,49,519.00
2007,10,05,14,50,516.80
2007,10,05,14,51,515.00
2007,10,05,14,52,513.70
2007,10,05,14,53,512.00
2007,10,05,14,54,509.30
2007,10,05,14,55,508.00
2007,10,05,14,56,507.50
2007,10,05,14,57,504.00
2007,10,05,14,58,504.90
2007,10,05,14,59,504.90
2007,10,05,15,00,501.60
2007,10,05,15,01,501.00
2007,10,05,15,02,500.70
2007,10,05,15,03,499.00
2007,10,05,15,04,497.50
2007,10,05,15,05,494.70
2007,10,05,15,06,494.00
2007,10,05,15,07,492.30
2007,10,05,15,08,491.60
2007,10,05,15,09,489.60
2007,10,05,15,10,489.00
2007,10,05,15,11,487.70
2007,10,05,15,12,485.30
2007,10,05,15,13,483.00
2007,10,05,15,14,482.40
2007,10,05,15,15,479.30
2007,10,05,15,16,478.00
2007,10,05,15,17,476.20
2007,10,05,15,18,475.00
2007,10,05,15,19,474.80
2007,10,05,15,20,471.00
2007,10,05,15,21,470.20
2007,10,05,15,22,468.40
2007,10,05,15,23,466.60
2007,10,05,15,24,466.00
2007,10,05,15,25,462.30
2007,10,05,15,26,461.80
2007,10,05,15,27,460.20
2007,10,05,15,28,458.00
2007,10,05,15,29,455.50
2007,10,05,15,30,454.20
2007,10,05,15,31,453.80
2007,10,05,15,32,452.00
2007,10,05,15,33,450.20
2007,10,05,15,34,446.20
2007,10,05,15,35,445.00
2007,10,05,15,36,441.20
2007,10,05,15,37,439.10
2007,10,05,15,38,436.60
2007,10,05,15,39,430.10
2007,10,05,15,40,429.00
2007,10,05,15,41,429.00
2007,10,05,15,42,421.50
2007,10,05,15,43,411.90
2007,10,05,15,44,394.00
2007,10,05,15,45,394.00
2007,10,05,15,46,404.70
2007,10,05,15,47,410.00
2007,10,05,15,48,411.00
2007,10,05,15,49,412.70
2007,10,05,15,50,410.70
2007,10,05,15,51,406.50
2007,10,05,15,52,401.80
2007,10,05,15,53,399.30
2007,10,05,15,54,398.90
2007,10,05,15,55,396.40
2007,10,05,15,56,392.40
2007,10,05,15,57,388.90
2007,10,05,15,58,385.80
2007,10,05,15,59,383.50
2007,10,05,16,00,380.80
2007,10,05,16,01,376.00
2007,10,05,16,02,374.80
2007,10,05,16,03,371.10
2007,10,05,16,04,370.20
2007,10,05,16,05,369.20
2007,10,05,16,06,367.00
2007,10,05,16,07,367.00
2007,10,05,16,08,367.00
2007,10,05,16,09,368.00
2007,10,05,16,10,367.70
2007,10,05,16,11,368.90
2007,10,05,16,12,370.60
2007,10,05,16,13,368.10
2007,10,05,16,14,371.00
2007,10,05,16,15,369.80
2007,10,05,16,16,366.70
2007,10,05,16,17,360.30
2007,10,05,16,18,336.10
2007,10,05,16,19,297.00
2007,10,05,16,20,297.00
2007,10,05,16,21,248.90
2007,10,05,16,22,266.40
2007,10,05,16,23,274.00
2007,10,05,16,24,274.00
2007,10,05,16,25,317.00
2007,10,05,16,26,399.00
2007,10,05,16,27,399.70
2007,10,05,16,28,384.10
2007,10,05,16,29,390.00
2007,10,05,16,30,383.00
2007,10,05,16,31,383.00
2007,10,05,16,32,377.00
2007,10,05,16,33,366.20
2007,10,05,16,34,359.80
2007,10,05,16,35,347.40
2007,10,05,16,36,333.40
2007,10,05,16,37,323.00
2007,10,05,16,38,309.80
2007,10,05,16,39,290.40
2007,10,05,16,40,277.10
2007,10,05,16,41,270.50
2007,10,05,16,42,261.20
2007,10,05,16,43,256.10
2007,10,05,16,44,253.00
2007,10,05,16,45,255.90
2007,10,05,16,46,255.20
2007,10,05,16,47,250.00
2007,10,05,16,48,247.10
2007,10,05,16,49,239.70
2007,10,05,16,50,242.60
2007,10,05,16,51,244.00
2007,10,05,16,52,243.10
2007,10,05,16,53,231.30
2007,10,05,16,54,243.90
2007,10,05,16,55,247.80
2007,10,05,16,56,250.60
2007,10,05,16,57,251.00
2007,10,05,16,58,252.90
2007,10,05,16,59,244.00
2007,10,05,17,00,241.80
2007,10,05,17,01,233.20
2007,10,05,17,02,222.10
2007,10,05,17,03,202.60
2007,10,05,17,04,199.00
2007,10,05,17,05,190.50
2007,10,05,17,06,179.30
2007,10,05,17,07,172.00
2007,10,05,17,08,172.00
2007,10,05,17,09,148.20
2007,10,05,17,10,139.00
2007,10,05,17,11,131.30
2007,10,05,17,12,128.00
2007,10,05,17,13,116.10
2007,10,05,17,14,103.40
2007,10,05,17,15,100.60
2007,10,05,17,16,96.70
2007,10,05,17,17,90.40